This is the latest recevied weather packets stored in our database for station/object N3MFL. If no packets are shown the sender has not sent any weather packets the latest 10 day(s).
| Time | Temp. | Humidity | Pressure | Rain* | Wind** | Luminosity | Snow |
|---|---|---|---|---|---|---|---|
| 1777562452 | 10° C | 93% | 1008 hPa | 0 mm | - | 111 W/m² | - |
| 1777562149 | 10° C | 94% | 1008.1 hPa | 0 mm | - | 97 W/m² | - |
| 1777561847 | 10.56° C | 94% | 1008.1 hPa | 1.78 mm | - | 136 W/m² | - |
| 1777561543 | 10° C | 94% | 1008 hPa | 1.78 mm | - | 140 W/m² | - |
| 1777561239 | 10° C | 94% | 1008 hPa | 0 mm | - | 104 W/m² | - |
| 1777560938 | 10° C | 94% | 1007.9 hPa | 0 mm | - | 115 W/m² | - |
| 1777560635 | 10° C | 95% | 1007.7 hPa | 0 mm | - | 141 W/m² | - |
| 1777560333 | 10° C | 94% | 1008.1 hPa | 0 mm | - | 146 W/m² | - |
| 1777560031 | 10° C | 95% | 1008.2 hPa | 0 mm | - | 125 W/m² | - |
| 1777559726 | 10° C | 95% | 1008.1 hPa | 0 mm | - | 113 W/m² | - |
| 1777559423 | 10° C | 95% | 1008.1 hPa | 0 mm | - | 143 W/m² | - |
| 1777559121 | 9.44° C | 95% | 1008.1 hPa | 0 mm | - | 221 W/m² | - |
| 1777558815 | 9.44° C | 95% | 1008.4 hPa | 0 mm | - | 114 W/m² | - |
| 1777558511 | 9.44° C | 95% | 1008.5 hPa | 0 mm | - | 74 W/m² | - |
| 1777558208 | 9.44° C | 95% | 1008.5 hPa | 0 mm | - | 91 W/m² | - |
| 1777557903 | 9.44° C | 95% | 1008.5 hPa | 0 mm | - | 123 W/m² | - |
| 1777557601 | 8.89° C | 95% | 1008.5 hPa | 0 mm | - | 61 W/m² | - |
| 1777557296 | 8.89° C | 95% | 1008.5 hPa | 0 mm | - | 90 W/m² | - |
| 1777556993 | 9.44° C | 95% | 1008.6 hPa | 0 mm | - | 60 W/m² | - |
| 1777556689 | 9.44° C | 95% | 1008.5 hPa | 0 mm | - | 68 W/m² | - |
| 1777556385 | 8.89° C | 95% | 1008.4 hPa | 0 mm | - | 79 W/m² | - |
| 1777556080 | 8.89° C | 95% | 1008.8 hPa | 0 mm | - | 72 W/m² | - |
| 1777555780 | 8.89° C | 96% | 1008.8 hPa | 0 mm | - | 72 W/m² | - |
| 1777555477 | 8.89° C | 96% | 1008.8 hPa | 1.27 mm | - | 86 W/m² | - |
| 1777555173 | 8.89° C | 96% | 1008.9 hPa | 1.27 mm | - | 90 W/m² | - |
* Rain latest hour (hover to see other rain measurements)
** Current wind speed in m/s (hover to see current wind gust speed)